N0ZRD-10 Weather Reports


time (UTC)temp
F
wind
direction
speed
knots
gust
knots
rain 1hr
in
rain 24hr
in
rain mn
in
humidity
%
barometer
mb
20260906171132 77 273 0.9 3.5 0.00 0.00 0.00 54
20260906155124 73 233 0.0 1.7 0.00 0.00 0.00 61
20260906154525 73 165 0.0 2.6 0.00 0.00 0.00 62
20260906154121 73 165 0.0 2.6 0.00 0.00 0.00 62
20260906153122 72 224 0.0 1.7 0.00 0.00 0.00 63
20260906145115 68 194 0.0 0.9 0.00 0.00 0.00 71
20260906142111 66 191 0.0 2.6 0.00 0.00 0.00 78
20260906141110 65 158 0.0 0.9 0.00 0.00 0.00 81
20260906133133 61 117 0.0 0.0 0.00 0.00 0.00 87
20260906133101 61 117 0.0 0.0 0.00 0.00 0.00 87
20260906122053 56 356 0.0 0.0 0.00 0.00 0.00 90
20260906114048 56 356 0.0 0.0 0.00 0.00 0.00 90
20260906111044 56 356 0.0 0.0 0.00 0.00 0.00 90
20260906110043 56 356 0.0 0.0 0.00 0.00 0.00 90
20260906105041 56 356 0.0 0.0 0.00 0.00 0.00 89
20260906100130 56 356 0.0 0.0 0.00 0.00 0.00 89
20260906100036 56 356 0.0 0.0 0.00 0.00 0.00 89
20260906095035 56 356 0.0 0.0 0.00 0.00 0.00 88
20260906094033 56 356 0.0 0.0 0.00 0.00 0.00 89
20260906092415 56 356 0.0 0.0 0.00 0.00 0.00 89
20260906092229 56 356 0.0 0.0 0.00 0.00 0.00 89
20260906092109 56 356 0.0 0.0 0.00 0.00 0.00 89
20260906092030 56 356 0.0 0.0 0.00 0.00 0.00 89
20260906090027 56 356 0.0 0.0 0.00 0.00 0.00 88
20260906084023 56 356 0.0 0.0 0.00 0.00 0.00 88
20260906083022 57 356 0.0 0.0 0.00 0.00 0.00 88
20260906082021 57 356 0.0 0.0 0.00 0.00 0.00 87
20260906080019 57 356 0.0 0.0 0.00 0.00 0.00 87
20260906073015 57 356 0.0 0.0 0.00 0.00 0.00 86
20260906072014 57 356 0.0 0.0 0.00 0.00 0.00 86
20260906065007 58 356 0.0 0.0 0.00 0.00 0.00 84
20260906064008 58 356 0.0 0.0 0.00 0.00 0.00 85
20260906051959 61 111 0.0 0.9 0.00 0.00 0.00 82
20260906044036 61 94 0.0 0.0 0.00 0.00 0.00 81
20260906043953 61 94 0.0 0.0 0.00 0.00 0.00 81
20260906040950 62 94 0.0 0.0 0.00 0.00 0.00 81
20260906032947 62 94 0.0 0.0 0.00 0.00 0.00 79
20260906023940 62 94 0.0 0.0 0.00 0.00 0.00 78
20260906022939 62 94 0.0 0.0 0.00 0.00 0.00 78
20260906014930 63 94 0.0 0.0 0.00 0.00 0.00 77
20260906013927 63 94 0.0 0.0 0.00 0.00 0.00 77
20260906011921 64 117 0.0 1.7 0.00 0.00 0.00 77
20260906010919 64 51 0.0 0.9 0.00 0.00 0.00 76
20260906004911 65 153 0.9 3.5 0.00 0.00 0.00 76
20260906002909 66 158 0.9 1.7 0.00 0.05 0.00 75
20260906001247 66 127 0.9 1.7 0.00 0.05 0.00 73
20260906000907 66 127 0.9 1.7 0.00 0.05 0.00 73
20260905235906 67 75 0.0 2.6 0.00 0.05 0.00 73
20260905234904 67 101 0.0 3.5 0.00 0.05 0.00 72
20260905232938 67 49 0.0 2.6 0.00 0.05 0.00 72
20260905232901 67 49 0.0 2.6 0.00 0.05 0.00 72
20260905231859 67 142 0.9 2.6 0.00 0.05 0.00 71
20260905230858 68 58 1.7 2.6 0.00 0.05 0.00 70
20260905213843 69 150 0.0 1.7 0.00 0.05 0.00 66
20260905212841 70 301 0.9 1.7 0.00 0.05 0.00 65
20260905205839 70 198 0.9 0.9 0.00 0.05 0.00 65
20260905204838 69 65 0.9 5.2 0.00 0.05 0.00 65
20260905201834 70 124 1.7 2.6 0.00 0.05 0.00 64
20260905194830 71 246 0.0 0.0 0.00 0.05 0.00 64
20260905191827 70 66 0.0 2.6 0.00 0.05 0.00 65
20260905190827 70 169 0.9 1.7 0.00 0.05 0.00 65
20260905185825 71 108 0.0 0.9 0.00 0.05 0.00 63
20260905184824 70 183 0.0 1.7 0.00 0.05 0.00 66
20260905182820 70 173 0.0 0.9 0.00 0.05 0.00 65
20260905174816 70 132 0.0 1.7 0.00 0.05 0.00 66